Benson, MN

10:43 PM CDT on May 26, 2018 (GMT -0500)
Benson Municipal

Weather History for KBBB - April, 2013

Change the Weather History Date:

Thursday, April 11, 2013

  Actual Average Record
Temperature  
Mean Temperature 30 °F -  
Max Temperature 33 °F 53 °F 84 °F (1968)
Min Temperature 28 °F 32 °F 15 °F (2004)
Degree Days  
Heating Degree Days 34    
Moisture  
Dew Point 28 °F    
Average Humidity 88    
Maximum Humidity 100    
Minimum Humidity 75    
Precipitation  
Precipitation 0.16 in - - ()
Sea Level Pressure  
Sea Level Pressure 29.77 in    
Wind  
Wind Speed 11 mph (East)    
Max Wind Speed 18 mph    
Max Gust Speed 28 mph    
Visibility 5 miles    
Events Snow    
Averages and records for this station are not official NWS values.
T = Trace of Precipitation, MM = Missing Value Source: NWS Daily Summary

Daily Weather History Graph

Daily Weather History Graph

Search for Another Location

Airport or City:

Astronomy

Apr. 11, 2013 Rise Set
Actual Time 6:44 AM CDT 8:03 PM CDT
Civil Twilight 6:13 AM CDT 8:34 PM CDT
Nautical Twilight 5:36 AM CDT 9:11 PM CDT
Astronomical Twilight 4:57 AM CDT 9:50 PM CDT
Moon 7:12 AM CDT (4/11) 9:44 PM CDT (4/11)
Length of Visible Light 14h 20m
Length of Day
13h 19m
New Moon, 2% of the Moon is Illuminated
Apr 11
New Moon
Apr 18
First Quarter
Apr 25
Full
May 2
Last Quarter
May 9
New

Hourly Weather History & Observations

Time (CDT) Temp. Windchill Dew Point Humidity Pressure Visibility Wind Dir Wind Speed Gust Speed Precip Events Conditions
12:12 AM 30.2 °F 21.9 °F 28.4 °F 93% 29.92 in 4.0 mi East 9.2 mph 17.3 mph N/A   Overcast
12:32 AM 30.2 °F 21.3 °F 28.4 °F 93% 29.91 in 4.0 mi East 10.4 mph - N/A   Overcast
12:53 AM 30.2 °F 23.4 °F 28.4 °F 93% 29.91 in 7.0 mi ENE 6.9 mph - N/A   Overcast
1:12 AM 32.0 °F 24.2 °F 28.4 °F 87% 29.91 in 4.0 mi East 9.2 mph - N/A   Overcast
1:33 AM 30.2 °F 20.8 °F 28.4 °F 93% 29.91 in 2.5 mi East 11.5 mph - 0.01 in   Overcast
1:53 AM 30.2 °F 21.3 °F 28.4 °F 93% 29.89 in 2.5 mi East 10.4 mph - 0.01 in   Overcast
2:12 AM 30.2 °F 21.3 °F 28.4 °F 93% 29.89 in 2.0 mi East 10.4 mph - N/A Snow Light Snow
2:33 AM 30.2 °F 23.4 °F 28.4 °F 93% 29.88 in 2.5 mi East 6.9 mph - 0.01 in Snow Light Snow
2:53 AM 30.2 °F 22.6 °F 28.4 °F 93% 29.87 in 2.0 mi East 8.1 mph - 0.01 in Snow Light Snow
3:12 AM 30.2 °F 24.3 °F 28.4 °F 93% 29.87 in 1.5 mi ENE 5.8 mph - N/A Snow Light Snow
3:33 AM 28.4 °F 22.2 °F 28.4 °F 100% 29.86 in 1.5 mi ENE 5.8 mph - 0.01 in Snow Light Snow
3:53 AM 28.4 °F 21.2 °F 28.4 °F 100% 29.85 in 1.2 mi ENE 6.9 mph - 0.02 in Snow Light Snow
4:12 AM 28.4 °F 21.2 °F 28.4 °F 100% 29.85 in 1.5 mi East 6.9 mph - 0.01 in Snow Light Snow
4:33 AM 28.4 °F 20.4 °F 28.4 °F 100% 29.83 in 0.8 mi East 8.1 mph - 0.01 in Snow Snow
4:52 AM 28.4 °F 21.2 °F 28.4 °F 100% 29.82 in 1.2 mi East 6.9 mph - 0.02 in Snow Light Snow
5:12 AM 28.4 °F 18.5 °F 28.4 °F 100% 29.81 in 1.2 mi East 11.5 mph - 0.01 in Snow Light Snow
5:33 AM 28.4 °F 17.5 °F 28.4 °F 100% 29.80 in - East 13.8 mph 19.6 mph 0.01 in   Overcast
5:52 AM 28.4 °F 15.8 °F 26.6 °F 93% 29.79 in - East 18.4 mph 21.9 mph 0.02 in   Overcast
6:13 AM 28.4 °F 18.0 °F 26.6 °F 93% 29.78 in - East 12.7 mph 20.7 mph N/A   Overcast
6:32 AM 28.4 °F 18.0 °F 26.6 °F 93% 29.77 in - East 12.7 mph 23.0 mph N/A   Overcast
6:53 AM 28.4 °F 18.0 °F 26.6 °F 93% 29.77 in - East 12.7 mph 21.9 mph N/A   Overcast
7:13 AM 28.4 °F 17.5 °F 26.6 °F 93% 29.77 in - East 13.8 mph 18.4 mph N/A   Overcast
7:32 AM 28.4 °F 18.0 °F 26.6 °F 93% 29.76 in - East 12.7 mph 18.4 mph N/A   Overcast
7:53 AM 28.4 °F 17.5 °F 26.6 °F 93% 29.75 in - East 13.8 mph - 0.01 in   Overcast
8:13 AM 28.4 °F 15.8 °F 26.6 °F 93% 29.73 in - East 18.4 mph 24.2 mph N/A   Overcast
8:32 AM 28.4 °F 16.2 °F 26.6 °F 93% 29.74 in - East 17.3 mph 26.5 mph 0.01 in   Overcast
8:53 AM 28.4 °F 16.6 °F 26.6 °F 93% 29.74 in - East 16.1 mph 23.0 mph N/A   Unknown
9:12 AM 28.4 °F 17.0 °F 26.6 °F 93% 29.74 in - East 15.0 mph 24.2 mph N/A   Overcast
9:33 AM - - - N/A% - - North - - N/A   Unknown
10:12 AM 32.0 °F 22.1 °F 26.6 °F 80% 29.73 in - ESE 13.8 mph 25.3 mph N/A   Overcast
10:33 AM 32.0 °F 22.1 °F 26.6 °F 80% 29.74 in 10.0 mi ESE 13.8 mph 25.3 mph N/A   Overcast
10:52 AM 33.8 °F 23.9 °F 26.6 °F 75% 29.74 in - ESE 15.0 mph 24.2 mph N/A   Overcast
11:12 AM 33.8 °F 23.5 °F 26.6 °F 75% 29.75 in - ESE 16.1 mph 27.6 mph N/A   Overcast
11:33 AM 33.8 °F 23.5 °F 26.6 °F 75% 29.74 in 10.0 mi ESE 16.1 mph 23.0 mph 0.01 in   Overcast
11:52 AM 33.8 °F 23.9 °F 26.6 °F 75% 29.74 in 10.0 mi ESE 15.0 mph 19.6 mph 0.01 in   Overcast
12:12 PM 33.8 °F 24.3 °F 28.4 °F 81% 29.74 in 5.0 mi ESE 13.8 mph 20.7 mph N/A   Overcast
12:33 PM 33.8 °F 24.8 °F 28.4 °F 81% 29.73 in 2.5 mi East 12.7 mph 21.9 mph 0.01 in   Overcast
12:52 PM 33.8 °F 24.8 °F 28.4 °F 81% 29.73 in 2.5 mi East 12.7 mph 18.4 mph 0.04 in   Overcast
1:12 PM 33.8 °F 25.3 °F 28.4 °F 81% 29.73 in 2.0 mi ESE 11.5 mph 24.2 mph 0.01 in   Overcast
1:33 PM 33.8 °F 24.3 °F 28.4 °F 81% 29.72 in 2.5 mi ESE 13.8 mph 24.2 mph 0.01 in   Overcast
1:52 PM 33.8 °F 24.3 °F 28.4 °F 81% 29.71 in 3.0 mi East 13.8 mph - 0.01 in   Haze
2:12 PM 33.8 °F 24.3 °F 28.4 °F 81% 29.71 in 7.0 mi East 13.8 mph 25.3 mph N/A   Overcast
2:33 PM 33.8 °F 23.9 °F 28.4 °F 81% 29.71 in 10.0 mi ESE 15.0 mph 21.9 mph N/A   Overcast
2:52 PM 33.8 °F 24.3 °F 28.4 °F 81% 29.71 in 2.0 mi East 13.8 mph 21.9 mph N/A Snow Light Snow
3:13 PM 33.8 °F 25.8 °F 30.2 °F 87% 29.71 in 2.5 mi East 10.4 mph 21.9 mph N/A Snow Light Snow
3:32 PM 33.8 °F 24.3 °F 30.2 °F 87% 29.71 in 3.0 mi East 13.8 mph - N/A Snow Light Snow
3:52 PM 33.8 °F 25.3 °F 30.2 °F 87% 29.72 in 1.8 mi East 11.5 mph 17.3 mph N/A Snow Light Snow
4:13 PM 33.8 °F 24.8 °F 30.2 °F 87% 29.72 in 2.5 mi ESE 12.7 mph 23.0 mph N/A Snow Light Snow
4:32 PM 33.8 °F 26.4 °F 30.2 °F 87% 29.73 in 2.5 mi East 9.2 mph - N/A   Overcast
4:52 PM 33.8 °F 25.3 °F 30.2 °F 87% 29.73 in 4.0 mi East 11.5 mph - N/A   Overcast
5:13 PM 33.8 °F 26.4 °F 30.2 °F 87% 29.73 in 3.0 mi East 9.2 mph - N/A   Overcast
5:32 PM 33.8 °F 24.8 °F 30.2 °F 87% 29.74 in 4.0 mi East 12.7 mph 17.3 mph N/A   Overcast
5:52 PM 33.8 °F 26.4 °F 30.2 °F 87% 29.74 in 4.0 mi East 9.2 mph - N/A   Overcast
6:13 PM 33.8 °F 26.4 °F 30.2 °F 87% 29.74 in 7.0 mi East 9.2 mph - N/A   Overcast
6:32 PM 33.8 °F 25.3 °F 30.2 °F 87% 29.74 in 7.0 mi East 11.5 mph - N/A   Overcast
6:50 PM 32.0 °F 22.5 °F 28.4 °F 87% 29.74 in 10.0 mi East 12.7 mph - N/A   Overcast
7:13 PM 32.0 °F 23.6 °F 28.4 °F 87% 29.73 in 10.0 mi East 10.4 mph - N/A   Overcast
7:32 PM 32.0 °F 23.0 °F 28.4 °F 87% 29.73 in 10.0 mi East 11.5 mph 19.6 mph N/A   Overcast
7:53 PM 32.0 °F 23.0 °F 28.4 °F 87% 29.72 in 10.0 mi East 11.5 mph 24.2 mph N/A Snow Light Snow
8:12 PM 32.0 °F 24.2 °F 28.4 °F 87% 29.72 in 10.0 mi ENE 9.2 mph 16.1 mph N/A Snow Light Snow
8:32 PM 30.2 °F 21.3 °F 28.4 °F 93% 29.72 in 10.0 mi East 10.4 mph 16.1 mph N/A Snow Light Snow
8:53 PM 30.2 °F 22.6 °F 26.6 °F 86% 29.73 in 10.0 mi ENE 8.1 mph 18.4 mph N/A Snow Light Snow
9:12 PM 30.2 °F 21.3 °F 26.6 °F 86% 29.73 in 7.0 mi East 10.4 mph - N/A Snow Light Snow
9:32 PM 30.2 °F 21.3 °F 26.6 °F 86% 29.74 in 4.0 mi East 10.4 mph - N/A Snow Light Snow
9:53 PM 30.2 °F 19.8 °F 26.6 °F 86% 29.75 in 3.0 mi East 13.8 mph - N/A Snow Light Snow
10:12 PM 30.2 °F 21.9 °F 26.6 °F 86% 29.75 in 4.0 mi East 9.2 mph 16.1 mph N/A Snow Light Snow
10:32 PM 30.2 °F 21.3 °F 26.6 °F 86% 29.75 in 7.0 mi East 10.4 mph 18.4 mph N/A Snow Light Snow
10:53 PM 30.2 °F 21.3 °F 26.6 °F 86% 29.75 in 10.0 mi East 10.4 mph 18.4 mph N/A Snow Light Snow
11:12 PM 30.2 °F 21.3 °F 24.8 °F 80% 29.75 in 10.0 mi East 10.4 mph - N/A Snow Light Snow
11:32 PM 28.4 °F 18.0 °F 24.8 °F 86% 29.75 in 10.0 mi East 12.7 mph 16.1 mph N/A Snow Light Snow
11:53 PM 28.4 °F 19.7 °F 24.8 °F 86% 29.76 in 10.0 mi East 9.2 mph - N/A Snow Light Snow